{"data":{"norad_id":40749,"intl_designator":"2015-037B","name":"BEIDOU-3S M1S (C57)","alt_names":[],"object_type":"PAYLOAD","status":"INACTIVE","operator":null,"country":"PRC","launch_date":"2015-07-25","launch_site_code":"XICLF","launch_vehicle":null,"mission":null,"orbit_class":"UNKNOWN","rcs_meters":21.5375,"size_class":null,"mass_kg":null,"dimensions":null,"purposes":["nav"],"wikipedia_slug":null,"has_3d_model":false,"image_url":null,"decayed_at":null,"tle_current":{"epoch":"2026-09-20T00:32:10.254624Z","epoch_age_seconds":55693,"freshness":"FRESH","line1":"1 40749U 15037B   26263.02234091 -.00000024  00000+0  00000+0 0  9995","line2":"2 40749  54.7806 298.7593 0001771  39.9707 320.1045  1.86255110 75893","mean_motion":1.8625511,"eccentricity":0.0001771,"inclination_deg":54.7806,"raan_deg":298.7593,"arg_perigee_deg":39.9707,"mean_anomaly_deg":320.1045,"bstar":0,"rev_number":7589,"period_min":773.13315054819,"perigee_km":21520.701520681,"apogee_km":21530.585039656,"semimajor_km":27903.780280168,"source":"CELESTRAK","updated_at":"2026-09-20T09:00:46.673890Z"}}}